Weather History for KBNA - January, 2014

Change the Weather History Date:

Tuesday, January 14, 2014

  Actual Average Record
Temperature  
Mean Temperature 46 °F 37 °F  
Max Temperature 58 °F 47 °F 72 °F (1937)
Min Temperature 34 °F 28 °F 8 °F (1886)
Degree Days  
Heating Degree Days 19    
Month to date heating degree days 415  
Since 1 July heating degree days 1883  
Cooling Degree Days 0    
Month to date cooling degree days 0  
Year to date cooling degree days 0  
Moisture  
Dew Point 36 °F    
Average Humidity 68    
Maximum Humidity 100    
Minimum Humidity 36    
Precipitation  
Precipitation T in 0.11 in 1.35 in (1918)
Month to date precipitation 2.56 1.63  
Year to date precipitation 2.56 1.63  
Snow  
Snow 0.00 in 0.10 in 1.60 in (1968)
Month to date snowfall 0.2 1.0  
Since 1 July snowfall 1.1 1.5  
Snow Depth 0.00 in    
Sea Level Pressure  
Sea Level Pressure 29.95 in    
Wind  
Wind Speed 7 mph (WSW)    
Max Wind Speed 24 mph    
Max Gust Speed 32 mph    
Visibility 10 miles    
Events Fog , Rain    
T = Trace of Precipitation, MM = Missing Value Source: NWS Daily Summary

Daily Weather History Graph

Daily Weather History Graph

Search for Another Location

Airport or City:

Trip Planner

Search our weather history database for the weather conditions in past years. The results will help you decide how hot, cold, wet, or windy it might be!

Date:

Astronomy

Jan. 14, 2014 Rise Set
Actual Time 6:57 AM CST 4:54 PM CST
Civil Twilight 6:29 AM CST 5:22 PM CST
Nautical Twilight 5:57 AM CST 5:54 PM CST
Astronomical Twilight 5:26 AM CST 6:25 PM CST
Moon 3:58 PM CST (1/14) 5:32 AM CST (1/14)
Length of Visible Light 10h 53m
Length of Day
9h 57m
Waxing Gibbous, 98% of the Moon is Illuminated
Jan 14
Waxing Gibbous
Jan 15
Full
Jan 23
Last Quarter
Jan 30
New
Feb 6
First Quarter

Hourly Weather History & Observations

Time (CST) Temp. Windchill Dew Point Humidity Pressure Visibility Wind Dir Wind Speed Gust Speed Precip Events Conditions
12:53 AM 48.9 °F - 46.0 °F 90% 29.85 in 10.0 mi Calm Calm - N/A   Overcast
1:53 AM 46.9 °F - 45.0 °F 93% 29.87 in 7.0 mi WNW 4.6 mph - N/A   Partly Cloudy
2:53 AM 45.0 °F 42.6 °F 41.0 °F 86% 29.89 in 10.0 mi WNW 4.6 mph - N/A   Clear
3:53 AM 43.0 °F 39.5 °F 37.9 °F 82% 29.90 in 10.0 mi WNW 5.8 mph - N/A   Clear
4:53 AM 42.1 °F 40.2 °F 37.0 °F 82% 29.91 in 10.0 mi WNW 3.5 mph - N/A   Clear
5:53 AM 39.9 °F 37.8 °F 36.0 °F 86% 29.94 in 10.0 mi WNW 3.5 mph - N/A   Clear
6:53 AM 36.0 °F 33.3 °F 35.1 °F 97% 29.94 in 9.0 mi South 3.5 mph - N/A Fog Patches of Fog
7:53 AM 36.0 °F 32.1 °F 35.1 °F 97% 29.97 in 9.0 mi South 4.6 mph - N/A   Clear
8:53 AM 43.0 °F 40.3 °F 39.0 °F 86% 29.99 in 10.0 mi South 4.6 mph - N/A   Clear
9:53 AM 46.9 °F - 39.9 °F 77% 29.99 in 10.0 mi South 5.8 mph - N/A   Clear
10:53 AM 50.0 °F - 36.0 °F 59% 29.96 in 10.0 mi South 9.2 mph - N/A   Clear
11:53 AM 53.1 °F - 35.1 °F 50% 29.93 in 10.0 mi SSW 11.5 mph - N/A   Clear
12:53 PM 55.9 °F - 33.1 °F 42% 29.90 in 10.0 mi South 11.5 mph - N/A   Partly Cloudy
1:53 PM 57.0 °F - 32.0 °F 39% 29.88 in 10.0 mi SSW 15.0 mph 19.6 mph N/A   Partly Cloudy
2:53 PM 57.0 °F - 30.0 °F 36% 29.88 in 10.0 mi SSW 9.2 mph - N/A   Mostly Cloudy
3:53 PM 55.9 °F - 30.9 °F 39% 29.89 in 10.0 mi SSW 10.4 mph - N/A   Scattered Clouds
4:53 PM 55.0 °F - 32.0 °F 42% 29.92 in 10.0 mi SW 6.9 mph - N/A   Mostly Cloudy
5:53 PM 53.1 °F - 33.1 °F 47% 29.92 in 10.0 mi SSW 5.8 mph - N/A   Mostly Cloudy
6:53 PM 54.0 °F - 30.0 °F 40% 29.95 in 10.0 mi WNW 12.7 mph 19.6 mph N/A   Overcast
7:29 PM 46.4 °F 40.1 °F 35.6 °F 66% 29.99 in 10.0 mi NNW 15.0 mph 29.9 mph N/A   Overcast
7:53 PM 46.0 °F 39.9 °F 36.0 °F 68% 30.01 in 10.0 mi NNW 13.8 mph 24.2 mph N/A   Overcast
8:17 PM 44.6 °F 38.8 °F 37.4 °F 76% 30.02 in 10.0 mi NNW 11.5 mph 19.6 mph 0.00 in Rain Light Rain
8:53 PM 43.0 °F 36.8 °F 34.0 °F 71% 30.04 in 10.0 mi NW 11.5 mph 18.4 mph 0.00 in Rain Light Rain
9:53 PM 42.1 °F - 34.0 °F 73% 30.04 in 10.0 mi Calm Calm - 0.00 in   Overcast
10:53 PM 41.0 °F 39.0 °F 34.0 °F 76% 30.03 in 10.0 mi Variable 3.5 mph - N/A   Mostly Cloudy
11:53 PM 39.9 °F - 34.0 °F 79% 30.04 in 10.0 mi Calm Calm - N/A   Overcast